CCA2838 ZSAM-ZBTJ

Flight info

Callsign CCA2838
Flight time N/A
Altitude 35100
Route DOVPU5U DOVPU W643 FOC W644 LEVGU/K0852S1100 W644 AKAVO/K0843S1130 A470 EMRID W135 ADBAS/K0848S1100 W135 DOGVI A470 DPX A593 DALIM W157 BEKDO/K0843S1130 W157 AVBOX AVBOX3H
Aircraft A320/M-SDE3FGHIRWY/LB1

Departure

Time 2026-04-29 09:29
Airport Xiamen Gaoqi International Airport (ZSAM)

Arrival

Time N/A
Airport Tianjin Binhai International Airport (ZBTJ)
Time Latitude Longitude Altitude Speed Heading
2026-04-29 09:01 24.53923 118.12777 57 ft 0 kts 143°
2026-04-29 09:13 24.53924 118.12777 56 ft 0 kts 143°
2026-04-29 09:13 24.53927 118.12774 56 ft 2 kts 142°
2026-04-29 09:13 24.53941 118.12763 51 ft 2 kts 143°
2026-04-29 09:14 24.53954 118.12752 53 ft 2 kts 144°
2026-04-29 09:14 24.53967 118.12742 49 ft 2 kts 156°
2026-04-29 09:14 24.53983 118.12737 52 ft 2 kts 177°
2026-04-29 09:14 24.54000 118.12740 48 ft 2 kts 213°
2026-04-29 09:15 24.54012 118.12751 52 ft 2 kts 230°
2026-04-29 09:15 24.54016 118.12756 48 ft 0 kts 232°
2026-04-29 09:20 24.54015 118.12754 48 ft 1 kts 232°
2026-04-29 09:20 24.54007 118.12743 52 ft 3 kts 232°
2026-04-29 09:21 24.53993 118.12723 48 ft 4 kts 232°
2026-04-29 09:21 24.53972 118.12694 57 ft 5 kts 232°
2026-04-29 09:21 24.53948 118.12656 53 ft 7 kts 243°
2026-04-29 09:21 24.53917 118.12612 55 ft 8 kts 245°
2026-04-29 09:22 24.53936 118.12557 54 ft 9 kts 317°
2026-04-29 09:22 24.53989 118.12511 54 ft 10 kts 316°
2026-04-29 09:22 24.53974 118.12441 55 ft 11 kts 231°
2026-04-29 09:22 24.53923 118.12371 59 ft 12 kts 232°
2026-04-29 09:23 24.53867 118.12292 54 ft 14 kts 232°
2026-04-29 09:23 24.53825 118.12235 59 ft 15 kts 232°
2026-04-29 09:23 24.53759 118.12142 59 ft 16 kts 232°
2026-04-29 09:23 24.53668 118.12014 55 ft 15 kts 232°
2026-04-29 09:24 24.53603 118.11924 60 ft 14 kts 232°
2026-04-29 09:24 24.53545 118.11842 62 ft 13 kts 232°
2026-04-29 09:24 24.53509 118.11792 62 ft 12 kts 232°
2026-04-29 09:24 24.53463 118.11727 59 ft 10 kts 234°
2026-04-29 09:25 24.53469 118.11672 60 ft 5 kts 315°
2026-04-29 09:25 24.53471 118.11670 61 ft 0 kts 319°
2026-04-29 09:26 24.53479 118.11663 59 ft 3 kts 319°
2026-04-29 09:26 24.53502 118.11642 60 ft 6 kts 321°
2026-04-29 09:26 24.53541 118.11608 64 ft 9 kts 321°
2026-04-29 09:26 24.53590 118.11615 58 ft 8 kts 44°
2026-04-29 09:27 24.53604 118.11636 64 ft 0 kts 53°
2026-04-29 09:28 24.53608 118.11642 64 ft 2 kts 53°
2026-04-29 09:28 24.53633 118.11677 60 ft 24 kts 52°
2026-04-29 09:28 24.53882 118.12028 50 ft 90 kts 51°
2026-04-29 09:28 24.54377 118.12721 51 ft 139 kts 52°
2026-04-29 09:29 24.55034 118.13659 283 ft 157 kts 53°
2026-04-29 09:29 24.56376 118.15510 1439 ft 158 kts 56°
2026-04-29 09:29 24.57070 118.16485 1842 ft 164 kts 56°
2026-04-29 09:30 24.57773 118.17473 2292 ft 165 kts 55°
2026-04-29 09:30 24.58483 118.18468 2733 ft 166 kts 54°
2026-04-29 09:30 24.59203 118.19473 3171 ft 168 kts 54°
2026-04-29 09:30 24.59959 118.20532 3413 ft 187 kts 53°
2026-04-29 09:31 24.60806 118.21723 3616 ft 209 kts 53°
2026-04-29 09:31 24.61799 118.23000 3842 ft 232 kts 43°
2026-04-29 09:31 24.63048 118.24272 4140 ft 257 kts 43°
2026-04-29 09:31 24.64419 118.25662 4508 ft 280 kts 43°
2026-04-29 09:32 24.65894 118.27161 5093 ft 294 kts 42°
2026-04-29 09:32 24.67415 118.28709 5866 ft 301 kts 41°
2026-04-29 09:32 24.68964 118.30289 6630 ft 307 kts 41°
2026-04-29 09:32 24.70537 118.31895 7351 ft 311 kts 41°
2026-04-29 09:33 24.72136 118.33527 8118 ft 315 kts 41°
2026-04-29 09:33 24.73755 118.35188 8793 ft 320 kts 42°
2026-04-29 09:33 24.75335 118.36932 9551 ft 324 kts 44°
2026-04-29 09:33 24.76891 118.38759 10189 ft 332 kts 45°
2026-04-29 09:34 24.78502 118.40698 10381 ft 355 kts 46°
2026-04-29 09:34 24.80213 118.42767 10525 ft 377 kts 46°
2026-04-29 09:34 24.82020 118.44948 10843 ft 391 kts 46°
2026-04-29 09:34 24.83870 118.47168 11399 ft 396 kts 46°
2026-04-29 09:35 24.85744 118.49399 12035 ft 399 kts 45°
2026-04-29 09:35 24.87642 118.51646 12658 ft 402 kts 45°
2026-04-29 09:35 24.89560 118.53898 13284 ft 405 kts 45°
2026-04-29 09:35 24.91506 118.56170 13867 ft 409 kts 45°
2026-04-29 09:36 24.93466 118.58455 14395 ft 412 kts 45°
2026-04-29 09:36 24.95441 118.60759 14927 ft 415 kts 45°
2026-04-29 09:36 24.97429 118.63082 15438 ft 418 kts 45°
2026-04-29 09:36 24.99433 118.65429 15950 ft 422 kts 45°
2026-04-29 09:37 25.01448 118.67793 16479 ft 425 kts 45°
2026-04-29 09:37 25.03481 118.70182 17006 ft 429 kts 45°
2026-04-29 09:37 25.05527 118.72588 17512 ft 432 kts 45°
2026-04-29 09:37 25.07594 118.75021 18036 ft 436 kts 45°
2026-04-29 09:38 25.09676 118.77476 18539 ft 439 kts 45°
2026-04-29 09:38 25.11771 118.79942 19017 ft 442 kts 45°
2026-04-29 09:38 25.13882 118.82420 19505 ft 445 kts 45°
2026-04-29 09:38 25.16009 118.84917 19984 ft 448 kts 44°
2026-04-29 09:39 25.18145 118.87430 20457 ft 451 kts 45°
2026-04-29 09:39 25.20296 118.89967 20915 ft 454 kts 44°
2026-04-29 09:39 25.22459 118.92519 21348 ft 457 kts 45°
2026-04-29 09:39 25.24641 118.95092 21775 ft 460 kts 44°
2026-04-29 09:40 25.26832 118.97677 22178 ft 463 kts 44°
2026-04-29 09:40 25.29047 119.00275 22570 ft 466 kts 44°
2026-04-29 09:40 25.31286 119.02881 22943 ft 469 kts 44°
2026-04-29 09:40 25.33545 119.05501 23339 ft 472 kts 44°
2026-04-29 09:41 25.35814 119.08130 23680 ft 474 kts 44°
2026-04-29 09:41 25.38096 119.10779 24009 ft 476 kts 44°
2026-04-29 09:41 25.40382 119.13437 24338 ft 478 kts 44°
2026-04-29 09:41 25.42672 119.16105 24648 ft 479 kts 44°
2026-04-29 09:42 25.44968 119.18783 24968 ft 481 kts 44°
2026-04-29 09:42 25.47275 119.21475 25275 ft 483 kts 44°
2026-04-29 09:42 25.49585 119.24175 25580 ft 484 kts 44°
2026-04-29 09:42 25.51904 119.26890 25879 ft 486 kts 44°
2026-04-29 09:43 25.54233 119.29617 26176 ft 488 kts 44°
2026-04-29 09:43 25.56564 119.32355 26468 ft 489 kts 44°
2026-04-29 09:43 25.58900 119.35109 26771 ft 491 kts 44°
2026-04-29 09:43 25.61237 119.37872 27058 ft 493 kts 44°
2026-04-29 09:44 25.63587 119.40655 27343 ft 495 kts 44°
2026-04-29 09:44 25.65942 119.43449 27622 ft 497 kts 44°
2026-04-29 09:44 25.68307 119.46258 27907 ft 499 kts 44°
2026-04-29 09:44 25.70678 119.49073 28179 ft 501 kts 44°
2026-04-29 09:45 25.73055 119.51892 28574 ft 500 kts 44°
2026-04-29 09:45 25.75442 119.54696 28999 ft 498 kts 41°
2026-04-29 09:45 25.78048 119.57191 29383 ft 493 kts 32°
2026-04-29 09:45 25.80932 119.59219 29741 ft 488 kts 24°
2026-04-29 09:46 25.83949 119.60930 30143 ft 487 kts 23°
2026-04-29 09:46 25.86961 119.62642 30492 ft 486 kts 23°
2026-04-29 09:46 25.89966 119.64362 30839 ft 486 kts 23°
2026-04-29 09:46 25.92973 119.66087 31195 ft 486 kts 23°
2026-04-29 09:47 25.95980 119.67795 31549 ft 485 kts 22°
2026-04-29 09:47 25.98989 119.69489 31906 ft 485 kts 22°
2026-04-29 09:47 26.02003 119.71181 32262 ft 485 kts 22°
2026-04-29 09:47 26.05049 119.72763 32629 ft 481 kts 15°
2026-04-29 09:48 26.08225 119.73828 32980 ft 474 kts
2026-04-29 09:48 26.11464 119.74327 33349 ft 466 kts 356°
2026-04-29 09:48 26.14682 119.74291 33725 ft 460 kts 350°
2026-04-29 09:48 26.17878 119.74084 34093 ft 460 kts 350°
2026-04-29 09:49 26.21067 119.73886 34417 ft 459 kts 350°
2026-04-29 09:49 26.24260 119.73690 34735 ft 459 kts 350°
2026-04-29 09:49 26.27450 119.73494 35013 ft 460 kts 349°
2026-04-29 09:49 26.30644 119.73295 35091 ft 462 kts 349°
2026-04-29 09:50 26.37128 119.72880 35108 ft 469 kts 349°
2026-04-29 09:50 26.43658 119.72476 35110 ft 470 kts 349°
2026-04-29 09:51 26.50214 119.72185 35112 ft 473 kts 353°
2026-04-29 09:51 26.56822 119.72326 35112 ft 476 kts 355°
2026-04-29 09:52 26.63447 119.72612 35114 ft 476 kts 355°
2026-04-29 09:52 26.70068 119.72812 35120 ft 476 kts 354°
2026-04-29 09:53 26.76689 119.72934 35125 ft 476 kts 353°
2026-04-29 09:53 26.83309 119.73054 35126 ft 476 kts 354°
2026-04-29 09:54 26.89940 119.73197 35132 ft 477 kts 354°
2026-04-29 09:54 26.96554 119.73186 35139 ft 469 kts 346°
2026-04-29 09:55 27.02700 119.71350 35138 ft 449 kts 327°
2026-04-29 09:55 27.08035 119.67903 35142 ft 442 kts 321°
2026-04-29 09:56 27.13290 119.64315 35146 ft 442 kts 321°
2026-04-29 09:56 27.18547 119.60730 35144 ft 442 kts 321°
2026-04-29 09:57 27.23895 119.57261 35151 ft 450 kts 328°
2026-04-29 09:57 27.26891 119.56113 35152 ft 461 kts 339°
2026-04-29 09:57 27.30104 119.55596 35153 ft 473 kts 350°
2026-04-29 09:58 27.36737 119.55604 35158 ft 477 kts 352°
2026-04-29 09:58 27.43367 119.55617 35157 ft 477 kts 352°
2026-04-29 09:59 27.50000 119.55629 35167 ft 477 kts 352°
2026-04-29 09:59 27.56638 119.55668 35171 ft 477 kts 352°
2026-04-29 10:00 27.63283 119.55718 35178 ft 478 kts 352°
2026-04-29 10:00 27.69932 119.55764 35195 ft 478 kts 352°
2026-04-29 10:01 27.76582 119.55798 35201 ft 478 kts 352°
2026-04-29 10:01 27.82116 119.55830 35201 ft 479 kts 352°
2026-04-29 10:02 27.89899 119.55871 35211 ft 479 kts 352°
2026-04-29 10:02 27.95449 119.55912 35213 ft 480 kts 352°
2026-04-29 10:03 28.03273 119.56034 35228 ft 481 kts 353°
2026-04-29 10:03 28.08841 119.56138 35222 ft 482 kts 353°
2026-04-29 10:04 28.15564 119.56353 35230 ft 485 kts 355°
2026-04-29 10:04 28.22356 119.56775 35237 ft 486 kts 356°
2026-04-29 10:05 28.29108 119.57219 35237 ft 486 kts 355°
2026-04-29 10:05 28.35868 119.57610 35241 ft 486 kts 355°
2026-04-29 10:06 28.42630 119.57966 35243 ft 486 kts 355°
2026-04-29 10:06 28.49392 119.58338 35249 ft 487 kts 356°
2026-04-29 10:07 28.56166 119.58760 35248 ft 487 kts 356°
2026-04-29 10:07 28.62943 119.59190 35255 ft 488 kts 356°
2026-04-29 10:08 28.69719 119.59617 35256 ft 488 kts 356°
2026-04-29 10:08 28.76504 119.60037 35262 ft 488 kts 356°
2026-04-29 10:09 28.83300 119.60447 35265 ft 489 kts 356°
2026-04-29 10:09 28.90095 119.60871 35271 ft 489 kts 356°
2026-04-29 10:10 28.96894 119.61301 35279 ft 489 kts 356°
2026-04-29 10:10 29.03698 119.61726 35278 ft 490 kts 356°
2026-04-29 10:11 29.10501 119.62146 35279 ft 490 kts 356°
2026-04-29 10:11 29.17311 119.62561 35282 ft 490 kts 356°
2026-04-29 10:12 29.24136 119.62973 35281 ft 491 kts 356°
2026-04-29 10:12 29.30956 119.63394 35280 ft 491 kts 356°
2026-04-29 10:13 29.37783 119.63809 35282 ft 492 kts 355°
2026-04-29 10:13 29.44626 119.64229 35280 ft 493 kts 356°
2026-04-29 10:14 29.51479 119.64842 35276 ft 500 kts
2026-04-29 10:14 29.58139 119.67493 35275 ft 516 kts 24°
2026-04-29 10:15 29.64208 119.71982 35272 ft 520 kts 30°
2026-04-29 10:15 29.70206 119.76648 35277 ft 521 kts 30°
2026-04-29 10:16 29.76209 119.81336 35283 ft 521 kts 30°